Location: Alafon
(8.4500°N, 4.2333°E)
Time: 00:36:22
(UTC+00:00)

Cosmos 883 Rocket - Pass Details

Date: 05 July 2020
Orbit: 951 x 994 km, 83.0° (Epoch: 06 August)

Event Time Altitude Azimuth Distance (km) Brightness Sun altitude
Rises 19:22:01 0° 360° (N) 3,660 7.9 -17.9°
Reaches altitude 10° 19:24:31 10° 2° (N) 2,719 7.2 -18.5°
Maximum altitude 19:30:45 75° 87° (E) 1,019 4.4 -19.8°
Enters shadow 19:35:17 20° 169° (S) 2,111 5.9 -20.8°
